Home   Weather   Chernobyl   Past weeks

Flag for Ukraine Past Weather in Chernobyl, Ukraine — Yesterday and Last 2 Weeks

Now
77 °F

Pleasantly warm.


Feels Like: 78 °F
Forecast: 52 / 71 °F
Wind: 3 mph from Southeast

Location: Hostomel

Current Time: Apr 29, 2017 at 6:45:02 pm

Latest Report: Apr 29, 2017 at 6:00 pm


Visibility: 6 mi

Pressure: 29.86 "Hg

Humidity: 32%

Dew Point: 45 °F

Location of ChernobylLocation

Past Weather in Chernobyl — Graph

°F

Chernobyl Temperature Yesterday

Maximum temperature yesterday: 77 °F (at 5:30 pm)
Minimum temperature yesterday: 50 °F (at 5:30 am)
Average temperature yesterday: 64 °F

High & Low Weather Summary for the Past Weeks

 TemperatureHumidityPressure
High77 °F (Apr 28, 5:30 pm)93% (Apr 14, 9:30 pm)30.27 "Hg (Apr 14, 9:30 pm)
Low28 °F (Apr 21, 2:30 am)21% (Apr 28, 5:30 pm)29.68 "Hg (Apr 14, 5:00 pm)
Average48 °F54%29.94 "Hg
* Reported Apr 14 5:00 pm — Apr 29 5:30 pm, Chernobyl, Weather by CustomWeather, © 2017

Note: Actual official high and low records may vary slightly from our data, if they occured in-between our weather recording intervals... More about our weather records

Advertising

Chernobyl Weather History for the Previous 24 Hours

Scroll right to see more
 ConditionsComfort  
Time TempWeatherWind HumidityBarometerVisibility
5:30 pm
Sat, Apr 29
75 °FMild.3 mph34%29.89 "HgN/A
5:00 pm77 °FPleasantly warm.3 mph32%29.89 "HgN/A
4:30 pm75 °FMild.8 mph34%29.89 "HgN/A
3:30 pm73 °FMild.6 mph33%29.89 "HgN/A
3:00 pm73 °FMild.8 mph31%29.89 "HgN/A
2:30 pm72 °FMild.8 mph33%29.89 "HgN/A
2:00 pm73 °FPassing clouds.6 mph31%29.89 "HgN/A
1:30 pm70 °FMild.8 mph35%29.89 "HgN/A
1:00 pm70 °FMild.8 mph35%29.89 "HgN/A
12:30 pm70 °FMild.13 mph33%29.89 "HgN/A
12:00 pm70 °FMild.10 mph33%29.86 "HgN/A
11:30 am68 °FMild.8 mph33%29.86 "HgN/A
10:30 am64 °FMild.10 mph37%29.86 "HgN/A
10:00 am63 °FMild.10 mph39%29.86 "HgN/A
9:30 am61 °FRefreshingly cool.13 mph36%29.86 "HgN/A
9:00 am59 °FRefreshingly cool.15 mph39%29.86 "HgN/A
8:30 am59 °FRefreshingly cool.13 mph36%29.86 "HgN/A
8:00 am57 °FRefreshingly cool.13 mph36%29.86 "HgN/A
7:30 am57 °FRefreshingly cool.13 mph36%29.83 "HgN/A
7:00 am59 °FRefreshingly cool.13 mph34%29.83 "HgN/A
6:30 am57 °FRefreshingly cool.13 mph36%29.83 "HgN/A
6:00 am59 °FRefreshingly cool.15 mph34%29.83 "HgN/A
5:30 am59 °FRefreshingly cool.15 mph31%29.83 "HgN/A
5:00 am59 °FRefreshingly cool.13 mph34%29.83 "HgN/A
4:30 am59 °FRefreshingly cool.13 mph34%29.83 "HgN/A
4:00 am61 °FRefreshingly cool.13 mph31%29.83 "Hg6 mi
3:30 am61 °FRefreshingly cool.13 mph31%29.83 "HgN/A
3:00 am61 °FRefreshingly cool.15 mph34%29.83 "HgN/A
2:30 am59 °FRefreshingly cool.10 mph36%29.86 "HgN/A
2:00 am59 °FRefreshingly cool.10 mph36%29.86 "HgN/A
1:30 am61 °FRefreshingly cool.13 mph34%29.86 "HgN/A
1:00 am61 °FRefreshingly cool.10 mph34%29.86 "HgN/A
12:30 am63 °FMild.13 mph32%29.86 "HgN/A
11:30 pm
Fri, Apr 28
64 °FMild.13 mph32%29.86 "HgN/A
11:00 pm64 °FMild.13 mph32%29.89 "HgN/A
10:30 pm66 °FMild.13 mph30%29.89 "HgN/A
10:00 pm66 °FMild.10 mph30%29.86 "HgN/A
9:30 pm68 °FMild.10 mph26%29.89 "HgN/A
9:00 pm68 °FMild.13 mph26%29.86 "HgN/A
8:30 pm70 °FMild.10 mph25%29.86 "HgN/A
8:00 pm70 °FMild.8 mph27%29.86 "HgN/A
7:30 pm72 °FMild.13 mph25%29.86 "HgN/A
7:00 pm73 °FMild.15 mph23%29.86 "HgN/A
6:30 pm73 °FMild.17 mph23%29.86 "HgN/A
6:00 pm75 °FMild.17 mph24%29.86 "HgN/A
Weather by CustomWeather, © 2017

See weather overviewHow to use our weather pages